Kalamata, Greece

10:31 PM EET on February 11, 2016 (GMT +0200)
Kalamata Air Base

Weather History for LGKL - October, 2011

Change the Weather History Date:

Monday, October 24, 2011

  Actual Average Record
Temperature  
Mean Temperature 64 °F -  
Max Temperature 71 °F 70 °F 80 °F (2006)
Min Temperature 57 °F 51 °F 42 °F (2000)
Degree Days  
Heating Degree Days 1    
Growing Degree Days 14 (Base 50)    
Moisture  
Dew Point 54 °F    
Average Humidity 68    
Maximum Humidity 82    
Minimum Humidity 50    
Precipitation  
Precipitation 0.00 in 0.18 in - ()
Sea Level Pressure  
Sea Level Pressure 30.03 in    
Wind  
Wind Speed 2 mph ()    
Max Wind Speed 6 mph    
Max Gust Speed -    
Visibility 6.2 miles    
Events      
Averages and records for this station are not official NWS values.
T = Trace of Precipitation, MM = Missing Value Source: Averaged Metar Reports

Daily Weather History Graph

Daily Weather History Graph

Search for Another Location

Airport or City:

Trip Planner

Search our weather history database for the weather conditions in past years. The results will help you decide how hot, cold, wet, or windy it might be!

Date:

Astronomy

Oct. 24, 2011 Rise Set
Actual Time 7:47 AM EEST 6:44 PM EEST
Civil Twilight 7:21 AM EEST 7:10 PM EEST
Nautical Twilight 6:50 AM EEST 7:41 PM EEST
Astronomical Twilight 6:20 AM EEST 8:11 PM EEST
Moon 4:47 AM EEST (10/24) 4:55 PM EEST (10/24)
Length of Visible Light 11h 49m
Length of Day
10h 56m
Waning Crescent, 9% of the Moon is Illuminated
Oct 24
Waning Crescent
Oct 26
New
Nov 2
First Quarter
Nov 10
Full
Nov 18
Last Quarter

Hourly Weather History & Observations

Time (EEST) Temp. Dew Point Humidity Pressure Visibility Wind Dir Wind Speed Gust Speed Precip Events Conditions
2:50 AM 59.0 °F 53.6 °F 82% 30.01 in 6.2 mi Calm Calm - N/A   Overcast
5:50 AM 59.0 °F 51.8 °F 77% 30.01 in 6.2 mi Calm Calm - N/A   Mostly Cloudy
6:20 AM 59.0 °F 51.8 °F 77% 30.01 in 6.2 mi NW 4.6 mph - N/A   Mostly Cloudy
6:50 AM 59.0 °F 53.6 °F 82% 30.01 in 6.2 mi Calm Calm - N/A   Mostly Cloudy
7:20 AM 59.0 °F 53.6 °F 82% 30.01 in 6.2 mi Calm Calm - N/A   Mostly Cloudy
7:50 AM 57.2 °F 51.8 °F 82% 30.01 in 6.2 mi NNW 4.6 mph - N/A   Mostly Cloudy
8:20 AM 57.2 °F 51.8 °F 82% 30.01 in 6.2 mi NNW 4.6 mph - N/A   Mostly Cloudy
8:50 AM 57.2 °F 51.8 °F 82% 30.01 in 6.2 mi North 4.6 mph - N/A   Mostly Cloudy
9:20 AM 59.0 °F 51.8 °F 77% 30.01 in 6.2 mi North 4.6 mph - N/A   Mostly Cloudy
9:50 AM 60.8 °F 53.6 °F 77% 30.04 in 6.2 mi NNW 4.6 mph - N/A   Scattered Clouds
10:20 AM 60.8 °F 53.6 °F 77% 30.04 in 6.2 mi NNW 4.6 mph - N/A   Scattered Clouds
10:50 AM 66.2 °F 53.6 °F 64% 30.04 in 6.2 mi Calm Calm - N/A   Scattered Clouds
11:20 AM 66.2 °F 53.6 °F 64% 30.04 in 6.2 mi Calm Calm - N/A   Scattered Clouds
11:50 AM 69.8 °F 55.4 °F 60% 30.04 in 6.2 mi Calm Calm - N/A   Scattered Clouds
12:20 PM 69.8 °F 55.4 °F 60% 30.04 in 6.2 mi Calm Calm - N/A   Scattered Clouds
12:50 PM 71.6 °F 53.6 °F 53% 30.04 in 6.2 mi Calm Calm - N/A   Scattered Clouds
1:20 PM 71.6 °F 53.6 °F 53% 30.04 in 6.2 mi Calm Calm - N/A   Scattered Clouds
1:50 PM 71.6 °F 55.4 °F 57% 30.04 in 6.2 mi Calm Calm - N/A   Scattered Clouds
2:20 PM 71.6 °F 55.4 °F 57% 30.04 in 6.2 mi Calm Calm - N/A   Scattered Clouds
2:50 PM 71.6 °F 55.4 °F 57% 30.01 in 6.2 mi Calm Calm - N/A   Scattered Clouds
3:20 PM 71.6 °F 55.4 °F 57% 30.01 in 6.2 mi South 5.8 mph - N/A   Scattered Clouds
3:50 PM 71.6 °F 51.8 °F 50% 30.01 in 6.2 mi Calm Calm - N/A   Scattered Clouds
4:20 PM 71.6 °F 51.8 °F 50% 30.01 in 6.2 mi SSE 4.6 mph - N/A   Scattered Clouds
4:50 PM 69.8 °F 57.2 °F 64% 30.01 in 6.2 mi Calm Calm - N/A   Scattered Clouds
5:20 PM 69.8 °F 55.4 °F 60% 30.01 in 6.2 mi Calm Calm - N/A   Scattered Clouds
5:50 PM 69.8 °F 55.4 °F 60% 30.01 in 6.2 mi South 4.6 mph - N/A   Scattered Clouds
6:20 PM 68.0 °F 53.6 °F 60% 30.01 in 6.2 mi South 4.6 mph - N/A   Scattered Clouds
6:50 PM 68.0 °F 53.6 °F 60% 30.04 in 6.2 mi Calm Calm - N/A   Scattered Clouds
7:20 PM 66.2 °F 53.6 °F 64% 30.04 in 6.2 mi Calm Calm - N/A   Scattered Clouds
7:50 PM 64.4 °F 55.4 °F 73% 30.04 in 6.2 mi Calm Calm - N/A   Scattered Clouds
8:20 PM 62.6 °F 55.4 °F 77% 30.04 in 6.2 mi Calm Calm - N/A   Scattered Clouds
8:50 PM 62.6 °F 57.2 °F 82% 30.06 in 6.2 mi Calm Calm - N/A   Mostly Cloudy
11:50 PM 59.0 °F 53.6 °F 82% 30.04 in 6.2 mi NNW 5.8 mph - N/A   Scattered Clouds